Tracking 19854 objects as of 23-Sep-2019
HD Live streaming from Space Station
objects crossing your sky now

FENGYUN 1C DEB

Track FENGYUN 1C DEB now!
10-day predictions


NORAD ID: 35213
Int'l Code: 1999-025DPV
Perigee: 514.8 km
Apogee: 748.4 km
Inclination: 98.5 °
Period: 97.2 minutes
Semi major axis: 7002 km
RCS: 0.006 m2 (small)
Launch date: May 10, 1999
Source: People's Republic of China (PRC)
Launch site: Taiyaun Space Center, China (TSC)

Note: This is SATELLITE DEBRIS
aabbcc
Your satellite tracking list
Your tracking list is empty




NASA's NSSDC Master Catalog

Two Line Element Set (TLE):
1 35213U 99025DPV 19264.49159444  .00001168  00000-0  12420-3 0  9999
2 35213  98.5279  95.7188 0166772 101.8280 260.1689 14.81533173589519
Source of the keplerian elements: AFSPC